When you browse on this site, cookies collect data to enhance your experience and personalize the content and advertising you see.
Visit our Privacy Policy to learn more. By continuing to use the site, you agree to this use of cookies and data.
EN

Hourly Weather Moorhead

Today, 7 August, Friday

Time Temperature Precipitation Wind Pressure Humidity
00:00 +19°C° 0 mm 4 mps 735 mmHg 95%
01:00 +19°C° 0 mm 4 mps 734 mmHg 96%
02:00 +19°C° 0 mm 4 mps 734 mmHg 96%
03:00 +19°C° 0 mm 4 mps 733 mmHg 97%
04:00 +19°C° 0 mm 4 mps 733 mmHg 97%
05:00 +20°C° 0 mm 5 mps 733 mmHg 96%
06:00 +21°C° 0 mm 5 mps 733 mmHg 95%
07:00 +22°C° 0.6 mm 5 mps 733 mmHg 93%
08:00 +23°C° 0.6 mm 5 mps 732 mmHg 92%
09:00 +25°C° 0.6 mm 5 mps 732 mmHg 90%
10:00 +26°C° 0.6 mm 5 mps 732 mmHg 86%
11:00 +27°C° 0.6 mm 5 mps 732 mmHg 82%
12:00 +28°C° 0.6 mm 5 mps 732 mmHg 78%
13:00 +30°C° 0.5 mm 6 mps 732 mmHg 71%
14:00 +32°C° 0.5 mm 6 mps 732 mmHg 64%
15:00 +34°C° 0.5 mm 6 mps 732 mmHg 57%
16:00 +33°C° 1.4 mm 5 mps 731 mmHg 61%
17:00 +32°C° 1.4 mm 5 mps 731 mmHg 64%
18:00 +32°C° 1.4 mm 4 mps 731 mmHg 68%
19:00 +29°C° 0.9 mm 4 mps 731 mmHg 74%
20:00 +28°C° 0.9 mm 4 mps 731 mmHg 81%
21:00 +26°C° 0.9 mm 5 mps 731 mmHg 87%
22:00 +26°C° 0.1 mm 4 mps 731 mmHg 89%
23:00 +25°C° 0.1 mm 4 mps 731 mmHg 92%

Tomorrow, 8 August, Saturday

Time Temperature Precipitation Wind Pressure Humidity
00:00 +25°C° 0.1 mm 4 mps 732 mmHg 94%
01:00 +24°C° 0.8 mm 3 mps 732 mmHg 95%
02:00 +24°C° 0.8 mm 3 mps 732 mmHg 96%
03:00 +23°C° 0.8 mm 2 mps 732 mmHg 97%
04:00 +22°C° 0.4 mm 3 mps 733 mmHg 93%
05:00 +21°C° 0.4 mm 4 mps 733 mmHg 90%
06:00 +20°C° 0.4 mm 5 mps 734 mmHg 86%
07:00 +21°C° 0.1 mm 5 mps 734 mmHg 78%
08:00 +22°C° 0.1 mm 5 mps 735 mmHg 70%
09:00 +22°C° 0.1 mm 5 mps 735 mmHg 61%
10:00 +25°C° 0 mm 5 mps 735 mmHg 54%
11:00 +27°C° 0 mm 4 mps 735 mmHg 47%
12:00 +28°C° 0 mm 4 mps 736 mmHg 40%
13:00 +29°C° 0 mm 3 mps 735 mmHg 39%
14:00 +30°C° 0 mm 3 mps 735 mmHg 37%
15:00 +30°C° 0 mm 3 mps 735 mmHg 36%
16:00 +29°C° 0 mm 3 mps 735 mmHg 42%
17:00 +28°C° 0 mm 2 mps 735 mmHg 47%
18:00 +28°C° 0 mm 2 mps 735 mmHg 53%
19:00 +26°C° 0 mm 2 mps 735 mmHg 57%
20:00 +24°C° 0 mm 3 mps 734 mmHg 61%
21:00 +21°C° 0 mm 3 mps 734 mmHg 64%
22:00 +21°C° 0.4 mm 3 mps 734 mmHg 70%
23:00 +21°C° 0.4 mm 3 mps 734 mmHg 76%

Day after tomorrow, 9 August, Sunday

Time Temperature Precipitation Wind Pressure Humidity
00:00 +20°C° 0.4 mm 3 mps 734 mmHg 82%
01:00 +20°C° 0.4 mm 3 mps 734 mmHg 86%
02:00 +20°C° 0.4 mm 3 mps 733 mmHg 90%
03:00 +20°C° 0.4 mm 3 mps 733 mmHg 94%
04:00 +20°C° 0 mm 3 mps 732 mmHg 93%
05:00 +19°C° 0 mm 3 mps 732 mmHg 93%
06:00 +19°C° 0 mm 2 mps 732 mmHg 93%
07:00 +21°C° 0 mm 3 mps 732 mmHg 86%
08:00 +22°C° 0 mm 5 mps 732 mmHg 80%
09:00 +24°C° 0 mm 6 mps 732 mmHg 73%
10:00 +27°C° 0 mm 5 mps 732 mmHg 68%
11:00 +29°C° 0 mm 5 mps 731 mmHg 64%
12:00 +32°C° 0 mm 5 mps 731 mmHg 60%
13:00 +33°C° 0 mm 5 mps 730 mmHg 56%
14:00 +34°C° 0 mm 5 mps 730 mmHg 53%
15:00 +35°C° 0 mm 5 mps 730 mmHg 50%
16:00 +33°C° 0.2 mm 5 mps 730 mmHg 56%
17:00 +30°C° 0.2 mm 6 mps 730 mmHg 62%
18:00 +28°C° 0.2 mm 7 mps 731 mmHg 69%
19:00 +26°C° 0.1 mm 6 mps 731 mmHg 65%
20:00 +23°C° 0.1 mm 6 mps 732 mmHg 62%
21:00 +22°C° 0.1 mm 5 mps 733 mmHg 59%
22:00 +20°C° 0 mm 4 mps 734 mmHg 56%
23:00 +19°C° 0 mm 4 mps 734 mmHg 54%

10 August, Monday

Time Temperature Precipitation Wind Pressure Humidity
00:00 +18°C° 0 mm 3 mps 735 mmHg 51%
01:00 +17°C° 0 mm 3 mps 735 mmHg 54%
02:00 +16°C° 0 mm 2 mps 735 mmHg 57%
03:00 +16°C° 0 mm 2 mps 735 mmHg 59%
04:00 +15°C° 0 mm 2 mps 735 mmHg 61%
05:00 +15°C° 0 mm 2 mps 735 mmHg 62%
06:00 +15°C° 0 mm 2 mps 736 mmHg 63%
07:00 +17°C° 0 mm 2 mps 736 mmHg 57%
08:00 +20°C° 0 mm 3 mps 735 mmHg 51%
09:00 +22°C° 0 mm 4 mps 735 mmHg 45%
10:00 +25°C° 0 mm 5 mps 735 mmHg 40%
11:00 +26°C° 0 mm 5 mps 736 mmHg 36%
12:00 +27°C° 0 mm 6 mps 736 mmHg 31%
13:00 +28°C° 0 mm 6 mps 735 mmHg 30%
14:00 +28°C° 0 mm 5 mps 735 mmHg 29%
15:00 +28°C° 0 mm 5 mps 735 mmHg 28%
16:00 +28°C° 0 mm 4 mps 735 mmHg 32%
17:00 +27°C° 0 mm 3 mps 734 mmHg 35%
18:00 +27°C° 0 mm 3 mps 734 mmHg 39%
19:00 +25°C° 0 mm 2 mps 734 mmHg 40%
20:00 +23°C° 0 mm 2 mps 734 mmHg 40%
21:00 +20°C° 0 mm 2 mps 734 mmHg 41%
22:00 +19°C° 0 mm 3 mps 734 mmHg 43%
23:00 +19°C° 0 mm 3 mps 734 mmHg 46%

11 August, Tuesday

Time Temperature Precipitation Wind Pressure Humidity
00:00 +18°C° 0 mm 3 mps 734 mmHg 48%
01:00 +18°C° 0 mm 4 mps 734 mmHg 49%
02:00 +17°C° 0 mm 4 mps 734 mmHg 49%
03:00 +17°C° 0 mm 4 mps 733 mmHg 49%
04:00 +15°C° 0 mm 4 mps 734 mmHg 55%
05:00 +15°C° 0 mm 4 mps 734 mmHg 60%
06:00 +14°C° 0 mm 4 mps 734 mmHg 65%
07:00 +18°C° 0 mm 4 mps 734 mmHg 60%
08:00 +21°C° 0 mm 4 mps 734 mmHg 54%
09:00 +23°C° 0 mm 4 mps 734 mmHg 49%
10:00 +26°C° 0 mm 4 mps 734 mmHg 46%
11:00 +28°C° 0 mm 5 mps 734 mmHg 42%
12:00 +32°C° 0 mm 5 mps 734 mmHg 39%
13:00 +32°C° 0 mm 5 mps 734 mmHg 37%
14:00 +33°C° 0 mm 5 mps 734 mmHg 35%
15:00 +34°C° 0 mm 5 mps 734 mmHg 33%
16:00 +33°C° 0 mm 4 mps 733 mmHg 37%
17:00 +32°C° 0 mm 4 mps 733 mmHg 40%
18:00 +30°C° 0 mm 4 mps 733 mmHg 44%
19:00 +28°C° 0 mm 4 mps 733 mmHg 47%
20:00 +27°C° 0 mm 5 mps 734 mmHg 50%
21:00 +25°C° 0 mm 5 mps 734 mmHg 53%
22:00 +25°C° 0 mm 5 mps 734 mmHg 56%
23:00 +23°C° 0 mm 5 mps 734 mmHg 60%

12 August, Wednesday

Time Temperature Precipitation Wind Pressure Humidity
00:00 +22°C° 0 mm 5 mps 735 mmHg 64%
01:00 +21°C° 0 mm 4 mps 735 mmHg 66%
02:00 +20°C° 0 mm 4 mps 735 mmHg 68%
03:00 +19°C° 0 mm 4 mps 735 mmHg 71%
04:00 +19°C° 0 mm 4 mps 735 mmHg 74%
05:00 +19°C° 0 mm 4 mps 735 mmHg 77%
06:00 +18°C° 0 mm 4 mps 735 mmHg 80%
07:00 +20°C° 0 mm 4 mps 735 mmHg 73%
08:00 +22°C° 0 mm 5 mps 735 mmHg 66%
09:00 +26°C° 0 mm 5 mps 735 mmHg 59%
10:00 +27°C° 0 mm 5 mps 735 mmHg 55%
11:00 +28°C° 0 mm 6 mps 735 mmHg 51%
12:00 +30°C° 0 mm 6 mps 735 mmHg 48%
13:00 +30°C° 0 mm 6 mps 735 mmHg 46%
14:00 +32°C° 0 mm 7 mps 735 mmHg 44%
15:00 +32°C° 0 mm 7 mps 735 mmHg 43%
16:00 +30°C° 0 mm 7 mps 735 mmHg 47%
17:00 +29°C° 0 mm 7 mps 735 mmHg 50%
18:00 +29°C° 0 mm 7 mps 734 mmHg 54%
19:00 +27°C° 0 mm 6 mps 734 mmHg 60%
20:00 +24°C° 0 mm 6 mps 735 mmHg 67%
21:00 +23°C° 0 mm 5 mps 735 mmHg 73%
22:00 +23°C° 1.2 mm 5 mps 735 mmHg 78%
23:00 +22°C° 1.2 mm 4 mps 735 mmHg 83%
Show more